Regional Weather Roundup
Issued by NWS

Home | Current Version | Previous Version | Graphics & Text | Print | Product List | Glossary On
Versions: 1 2 3 4 5 6 7 8 9 10 11 12 13 14 15 16 17 18 19 20 21 22 23 24 25 26 27 28 29 30 31 32 33 34 35 36 37 38 39 40 41 42 43 44 45 46 47 48 49 50
145
ASUS43 KDMX 202101
RWRIA

WEATHER ROUNDUP FOR IOWA
NATIONAL WEATHER SERVICE DES MOINES IA
300 PM CST FRI JAN 20 2017

NOTE: "FAIR" INDICATES FEW OR NO CLOUDS BELOW 12,000 FEET WITH NO
SIGNIFICANT WEATHER AND/OR OBSTRUCTIONS TO VISIBILITY.

* - THESE STATIONS ARE NOT NWS STATIONS...THUS NOT UNDER NWS
QUALITY CONTROL.  THEY ALSO DO NOT REPORT WEATHER SUCH
AS PRECIPITATION OR FOG.

IAZ001>003-012>014-020>022-031>034-043>046-202200-
   NORTHWEST IOWA

CITY           SKY/WX    TMP DP  RH WIND       PRES   REMARKS
CARROLL *      CLOUDY    41  39  93 SE9       29.49R
CHEROKEE *     CLOUDY    39  39 100 SE9       29.48S FOG     WCI  33
DENISON *      MIX PCPN  41  41 100 E9        29.45F
LE MARS *      CLOUDY    43  41  93 SE10      29.46S FOG
ORANGE CITY *  CLOUDY    39  39 100 SE6       29.45F FOG     WCI  35
SHELDON *      FOG       39  39 100 SE12      29.45S VSB 1/4 WCI  32
SIOUX CITY     CLOUDY    43  41  93 SE7       29.46S FOG
SPENCER        CLOUDY    38  38 100 S10       29.49R FOG     WCI  31
STORM LAKE *   FOG       37  37 100 SE9       29.48S VSB<1/4 WCI  31
$$

IAZ055>058-069>071-079>083-090>094-202200-
   SOUTHWEST IOWA

CITY           SKY/WX    TMP DP  RH WIND       PRES   REMARKS
ATLANTIC *     CLOUDY    41  41 100 CALM      29.48F
AUDUBON *      CLOUDY    39  37  93 SE5       29.49F
CLARINDA *     CLOUDY    45  45 100 E7G13     29.48S
COUNCIL BLFS * CLOUDY    41  41 100 E9        29.46S FOG
CRESTON *      CLOUDY    41  41 100 E12       29.48F
HARLAN  *      CLOUDY    41  41 100 E10       29.50F
LAMONI         CLOUDY    43  42  97 E8        29.47F
RED OAK *      CLOUDY    43  43 100 E7        29.47S
SHENANDOAH *   CLOUDY    45  43  93 E7        29.46S
$$

IAZ047>049-059>061-072>074-084-202200-
   CENTRAL IOWA

CITY           SKY/WX    TMP DP  RH WIND       PRES   REMARKS
AMES           CLOUDY    39  39 100 SE6       29.52F FOG     WCI  35
ANKENY *       CLOUDY    41  41 100 SE6       29.53F
BOONE *        FOG       39  39 100 SE9       29.51S VSB<1/4 WCI  33
CHARITON *     CLOUDY    41  41 100 E8        29.50F FOG
DES MOINES     CLOUDY    43  41  93 SE7       29.52F FOG
GRINNELL*      FOG       39  38  99 SE6       29.55S VSB 1/2 WCI  35
KNOXVILLE *    FOG       41  39  93 SE6       29.51F VSB 1
MARSHALLTOWN   CLOUDY    39  39 100 SE8       29.53F FOG     WCI  33
NEWTON *       FOG       39  39 100 SE7       29.53S VSB 1/4 WCI  34
PELLA *        FOG       40  40  99 SE3       29.54F VSB 3/4
PERRY *        FOG       40  39  97 E9        29.51F VSB 3/4 WCI  34
$$

IAZ004>006-015-016-023>025-035-036-202200-
   NORTH CENTRAL IOWA

CITY           SKY/WX    TMP DP  RH WIND       PRES   REMARKS
ALGONA *       FOG       37  37 100 SE7       29.51S VSB 1   WCI  32
CLARION *      FOG       37  37 100 S8        29.52S VSB 1/2 WCI  31
ESTHERVILLE    FOG       36  36 100 SE7       29.48F VSB 1/4 WCI  30
FORT DODGE *   CLOUDY    37  36  93 SE5       29.52S WCI  34
MASON CITY     FOG       34  34 100 SE5       29.54F VSB<1/4 WCI  30
FOREST CITY *  FOG       36  36 100 SE6       29.52F VSB 1/4 WCI  31
WEBSTER CITY * FOG       37  37 100 SE6       29.50F VSB<1/4 WCI  33
IOWA FALLS *   FOG       38  37  98 SE6       29.54S VSB 1/4 WCI  33
$$

IAZ007>011-017>019-026>030-037>042-050>054-066-202200-
   NORTHEAST IOWA

CITY           SKY/WX    TMP DP  RH WIND       PRES   REMARKS
CEDAR RAPIDS   CLOUDY    40  39  97 S6        29.56R FOG
CHARLES CITY * FOG       36  36 100 E5        29.55S VSB<1/4 WCI  32
CLINTON *      CLOUDY    41  40  96 SE5       29.60R FOG
DECORAH *      FOG       36  36 100 E6        29.55S VSB<1/4 WCI  31
DUBUQUE        FOG       38  38 100 SE6       29.57R VSB<1/4 WCI  33
MONTICELLO *   CLOUDY    39  39 100 SE3       29.57R FOG
OELWEIN *      FOG       36  36 100 SE6       29.57R VSB<1/4 WCI  31
WATERLOO       CLOUDY    39  37  92 MISG      29.56R FOG
$$

IAZ064-065-067-068-078-202200-
   EAST CENTRAL IOWA

CITY           SKY/WX    TMP DP  RH WIND       PRES   REMARKS
DAVENPORT      CLOUDY    44  41  89 S9        29.59R
IOWA CITY      CLOUDY    43  40  89 SE8       29.59R
MUSCATINE *    CLOUDY    45  41  87 SE6       29.59R
QUAD CITIES    CLOUDY    45  42  89 S7        29.59R
$$

IAZ062-063-075>077-085>089-095>099-202200-
   SOUTHEAST IOWA

CITY           SKY/WX    TMP DP  RH WIND       PRES   REMARKS
BURLINGTON     CLOUDY    44  44 100 E3        29.57S FOG
FAIRFIELD *    CLOUDY    43  43 100 SE8       29.55S FOG
FORT MADISON * FOG       45  45 100 E5        29.57F VSB 1/4
KEOKUK *       FOG       45 N/A N/A E6        29.55F VSB 1
OSKALOOSA *    CLOUDY    41  40  99 SE6       29.54F FOG
OTTUMWA        CLOUDY    43  41  93 E5        29.54F FOG
WASHINGTON *   CLOUDY    45  43  93 SE7       29.58R
$$

ABBREVIATIONS USED IN REMARKS
   TC - TEMPERATURES IN CELSIUS
  WCI - WIND CHILL INDEX
   HX - HEAT INDEX
  VSB - VISIBILITY
$$





USA.gov is the U.S. government's official web portal to all federal, state and local government web resources and services.